Flag for Canada Weather past 2 weeks in Chatham-Kent, Ontario, Canada

Now
44 °F

Quite cool.


Feels Like: 39 °F
Forecast: 38 / 47 °F
Wind: 9 mph from Northwest

Location: Erieau

Current Time: Apr 27, 2015 at 2:53:48 PM

Latest Report: Apr 27, 2015 at 2:00 PM


Visibility: N/A

Pressure: 29.99 "Hg

Humidity: 69%

Dew point: 35 °F

Location of Chatham-KentLocation

Historic Weather in Chatham-Kent — Graph

°F

Chatham-Kent temperature yesterday

Maximum temperature yesterday: 53 °F (at 4:00 PM)
Minimum temperature yesterday: 36 °F (at 5:00 AM)
Average temperature yesterday: 43 °F

Past Weeks' High & Low Weather Summary

 TemperatureHumidityPressure
High65 °F (Apr 18, 3:00 PM)100% (Apr 17, 11:00 PM)30.39 "Hg (Apr 17, 11:00 PM)
Low31 °F (Apr 23, 9:00 AM)27% (Apr 15, 11:00 AM)29.32 "Hg (Apr 20, 6:00 AM)
Average44 °F70%29.95 "Hg
* Reported Apr 12 1:00 PM — Apr 27 1:00 PM, Chatham-Kent, Weather by CustomWeather, © 2015

Note: Actual official high and low records may vary slightly from our data, if they occured in-between our weather recording intervals... More about our weather records

Advertising

Chatham-Kent weather history for previous 24 hours

 ConditionsComfort  
Time TempWeatherWind HumidityBarometerVisibility
1:00 PM
Mon, Apr 27
44 °FQuite cool.8 mph70%29.98 "HgN/A
12:00 PM43 °FQuite cool.9 mph72%29.97 "HgN/A
11:00 AM42 °FQuite cool.8 mph76%29.96 "HgN/A
10:00 AM40 °FQuite cool.10 mph79%29.94 "HgN/A
9:00 AM39 °FChilly.9 mph83%29.92 "HgN/A
8:00 AM38 °FChilly.8 mph86%29.91 "HgN/A
7:00 AM38 °FChilly.8 mph86%29.90 "HgN/A
6:00 AM40 °FChilly.6 mph85%29.88 "HgN/A
5:00 AM41 °FQuite cool.6 mph77%29.88 "HgN/A
4:00 AM40 °FQuite cool.6 mph77%29.87 "HgN/A
3:00 AM40 °FQuite cool.6 mph77%29.88 "HgN/A
2:00 AM41 °FQuite cool.6 mph76%29.89 "HgN/A
1:00 AM39 °FChilly.5 mph78%29.90 "HgN/A
12:00 AM40 °FChilly.6 mph72%29.90 "HgN/A
11:00 PM
Sun, Apr 26
41 °FQuite cool.6 mph68%29.91 "HgN/A
10:00 PM44 °FQuite cool.8 mph63%29.90 "HgN/A
9:00 PM46 °FCool.8 mph55%29.89 "HgN/A
8:00 PM48 °FCool.12 mph53%29.89 "HgN/A
7:00 PM49 °FCool.15 mph49%29.89 "HgN/A
6:00 PM51 °FCool.9 mph48%29.88 "HgN/A
5:00 PM52 °FCool.10 mph46%29.88 "HgN/A
4:00 PM53 °FCool.7 mph44%29.88 "HgN/A
3:00 PM45 °FCool.6 mph68%29.89 "HgN/A
2:00 PM42 °FQuite cool.7 mph75%29.88 "HgN/A
Weather by CustomWeather, © 2015

See weather overviewHow to use our weather pages